User: anonymous   Login
Location: Partizánske
(48.6285°N, 18.3769°E)
Time: 00:31:47
(UTC+02:00)
Language:

Transit 2A Rocket - Orbit

View from above orbital plane
View from above orbital plane
View from above satellite
View from above satellite

Ground track
Ground track

The orbit data is extracted from the following two-line orbital elements,

1 00047U 60007C   22175.54078438  .00000378  00000-0  11007-3 0  9990
2 00047  66.6665 343.8540 0220690 125.1207 237.0803 14.42356851240965
Epoch (UTC): 24 June 2022 12:58:43
Eccentricity: 0.0220690
inclination: 66.6665°
perigee height: 593 km
apogee height: 908 km
right ascension of ascending node: 343.8540°
argument of perigee: 125.1207°
revolutions per day: 14.42356851
mean anomaly at epoch: 237.0803°
orbit number at epoch: 24096

The dashed part of the orbit path shows where the satellite is in the earth's shadow,  

DLR